STARLINK-32947, 63121

Orbit data source: Space-Track

STARLINK-32947, 63121 is a payload satellite owned by SpaceX/Seattle (US) in LEO that was launched on Thu, 27 Feb 2025 UTC via an FALCON 9 launch vehicle from the Air Force Eastern Test Range (AFETR). Payload-class satellites include a variety of spacecraft equipped with specific instruments for various scientific and technological missions. These include communications satellites like Starlink; space stations such as the ISS; scientific satellites like the Hubble; Earth observation satellites from companies like Planet Labs, Umbra, and HawkEye 360; GPS; miniature CubeSats for education and research; and military/defense satellites.

Loading next visibility...
Identifier
63121, 2025-039T
Orbit
LEO
Country
Flag of USUS
Related business
Manufacturer
SpaceX/Seattle
Mission
Operational Commercial Communications
Bus & Motor
STARLINK V2M, Unknown motor
Mass
730 kg wet, ~700 kg dry
Launch date (UTC)
2025-02-27 (1 year ago)
Launch vehicle
FALCON 9
Launch site
Air Force Eastern Test Range (AFETR)
Object type
Payload
Rocket body
Debris
Shape & HBR
Box + 2 Pan, 17.7 m
Radar Cross Section
33.884 m², Large (>1 m²)

Expand to show TLE details & history
Last TLE update: 10 hours ago

TLE from 10 hours ago
0 STARLINK-32947
1 63121U 25039T   26125.19033046  .00046196  00000-0  16761-2 0  9993
2 63121  43.0038  53.1927 0001885 261.5788  98.4850 15.27611484 66712
Epoch: 2026-05-05T04:34Z
TLE epoch observation values (Epoch: 2026-05-05T04:34:04.551Z)
Latitude
-0.00004°
Longitude
121.60497°
Altitude
482.922 km
Speed
7.626 km/s
True Right ascension
03h 32m 46s
True Declination
0° 00' 00"
Sunlit
Object was in daylight at epoch
Visualization orbit readout
Latitude
Unknown
Longitude
Unknown
Altitude
Unknown
Speed
Unknown
Apparent Right ascension
Unknown
Apparent Declination
Unknown
Sunlit
N/A
Visualization observer readout
Local Sidereal Time
22:05:27
Azimuth
Unknown
Elevation
Unknown
Doppler factor
Unknown
Orbital elements
Apogee altitude
486.193 km
Perigee altitude
483.606 km
Semi-major axis
6,863.036 km
Eccentricity
0.00019
Inclination
43.0038°
RAAN
53.1927°
Arg. of periapsis
261.5788°
True anomaly
98.50636°
Mean anomaly
98.485°
Eccentric anomaly
98.49568°
Mean motion
3.81741 °/min
Orbital period
94.3 mins
BSTAR
0.0016761
Loading maneuver chart data...
Computing Atmospheric mass density...
Loading historical data...
Loading historical data...
Loading historical data...
Loading historical data...
Loading historical data...
Loading historical data...
Loading historical data...

Documentation

Showing up to 5 results
|